This demonstration page uses our WeatherBlox Daily Observations layout. Learn more.

Left ArrowRight Arrow

38.80484, -77.04692

Hourly Observations for October 11, 2021

Temp ( °F °C ) Dew Point ( °F °C ) Humidity (%) Winds ( mph kmh ) Pressure ( in mb ) Visibility ( mi km ) Precip ( " mm )
12:52 am 00:52 Cloudy 66 18.9 62 16.7 87 87 N 10 17 30.06 1018 8 13 0.00 0.00
1:24 am 01:24 Mostly Cloudy 66 18.9 62 16.7 87 87 NNE 12 19 30.06 1018 8 13 0.00 0.00
1:52 am 01:52 Mostly Cloudy 66 18.9 61 16.1 84 84 NNE 10 17 30.05 1018 8 13 0.00 0.00
2:52 am 02:52 Mostly Cloudy 66 18.9 61 16.1 84 84 N 10 17 30.04 1017 10 16 0.00 0.00
3:52 am 03:52 Cloudy 66 18.9 61 16.1 84 84 N 12 19 30.01 1016 10 16 0.00 0.00
4:52 am 04:52 Cloudy 66 18.9 60 15.6 81 81 N 12 19 30.03 1017 10 16 0.00 0.00
5:52 am 05:52 Cloudy 66 18.9 59 15 78 78 NNE 12 19 30.04 1017 10 16 0.00 0.00
6:52 am 06:52 Cloudy 65 18.3 59 15 81 81 N 14 22 30.06 1018 10 16 0.00 0.00
7:52 am 07:52 Cloudy 65 18.3 58 14.4 78 78 NNE 12 19 30.07 1018 10 16 0.00 0.00
8:52 am 08:52 Cloudy 66 18.9 58 14.4 75 75 N 12 19 30.09 1019 10 16 0.00 0.00
9:52 am 09:52 Cloudy 67 19.4 59 15 76 76 N 10 17 30.09 1019 10 16 0.00 0.00
10:52 am 10:52 Cloudy 66 18.9 60 15.6 81 81 N 10 17 30.08 1019 10 16 0.00 0.00
11:52 am 11:52 Cloudy 68 20 60 15.6 76 76 N 8 13 30.07 1018 10 16 0.00 0.00
12:52 pm 12:52 Cloudy 68 20 60 15.6 76 76 NNE 9 15 30.06 1018 10 16 0.00 0.00
1:52 pm 13:52 Cloudy 69 20.6 60 15.6 73 73 NNE 8 13 30.05 1018 10 16 0.00 0.00
2:52 pm 14:52 Cloudy 69 20.6 60 15.6 73 73 N 9 15 30.04 1017 10 16 0.00 0.00
3:52 pm 15:52 Cloudy 69 20.6 60 15.6 73 73 NE 9 15 30.05 1018 10 16 0.00 0.00
4:52 pm 16:52 Cloudy 69 20.6 59 15 70 70 NNE 10 17 30.05 1018 10 16 0.00 0.00
5:52 pm 17:52 Cloudy 69 20.6 59 15 70 70 N 9 15 30.06 1018 10 16 0.00 0.00
6:36 pm 18:36 Cloudy 69 20.6 60 15.6 73 73 N 7 11 30.06 1018 10 16 0.00 0.00
6:45 pm 18:45 Cloudy 69 20.6 60 15.6 73 73 NNW 8 13 30.07 1018 10 16 0.00 0.00
6:52 pm 18:52 Cloudy 68 20 60 15.6 76 76 NNW 8 13 30.07 1018 10 16 0.00 0.00
6:57 pm 18:57 Cloudy 69 20.6 60 15.6 73 73 NNW 8 13 30.07 1018 10 16 0.00 0.00
7:52 pm 19:52 Cloudy 69 20.6 60 15.6 73 73 NE 8 13 30.08 1019 10 16 0.00 0.00
8:23 pm 20:23 Cloudy 68 20 60 15.6 76 76 NNE 7 11 30.08 1019 10 16 0.00 0.00
8:27 pm 20:27 Cloudy 69 20.6 61 16.1 76 76 NNE 6 9 30.08 1019 10 16 0.00 0.00
8:35 pm 20:35 Cloudy 69 20.6 61 16.1 76 76 NNE 6 9 30.08 1019 10 16 0.00 0.00
8:52 pm 20:52 Cloudy 68 20 61 16.1 78 78 N 6 9 30.08 1019 10 16 0.00 0.00
9:52 pm 21:52 Cloudy 68 20 61 16.1 78 78 N 5 7 30.09 1019 10 16 0.00 0.00
10:52 pm 22:52 Cloudy 69 20.6 60 15.6 73 73 NNE 6 9 30.08 1019 10 16 0.00 0.00
11:13 pm 23:13 Cloudy 69 20.6 60 15.6 73 73 N 7 11 30.08 1019 10 16 0.00 0.00
11:52 pm 23:52 Cloudy 68 20 61 16.1 78 78 N 5 7 30.07 1018 10 16 0.00 0.00

Powered by AerisWeather